[[{"header":{"parameterUnit":"m.s-1","parameterCategory":1,"la1":30.2991,"la2":30.254,"lo1":-89.0895,"lo2":-89.0444,"dy":0.0017,"dx":0.0017,"nx":28,"ny":28,"refTime":"2025-04-27T03:00:00:Z","depth":0,"parameterNumber":2,"parameterNumberName":"U-component_of_WINDS"},"data":[0,0,0,0,0,0,0,0,0,0,0,0,0,0,0,0,0,0,0,0,0,0,0,0,0,0,0,0,0,0,0,0,0,0,0,0,0,0,0,0,0,0,0,0,0,0,0,0,0,0,0,0,0,0,0,0,0,0,0.5307,0.5309,0,0.5426,0.5428,0.5429,0.5456,0.5455,0.5454,0.5453,0.5579,0.5583,0.5587,0,0,0,0,0,0,0,0,0,0,0,0,0,0.5105,0.5108,0.5307,0.5309,0.531,0.5426,0.5428,0.543,0.5456,0.5455,0.5454,0.5453,0.5578,0.5582,0.5587,0,0,0,0,0,0,0,0,0,0,0,0,0,0.5205,0.5109,0.5307,0.5337,0.5341,0.5426,0.5428,0.543,0.5456,0.5455,0.5454,0.5453,0.5576,0.5582,0.5588,0.5652,0,0,0.5607,0.561,0,0,0,0,0,0,0,0,0.5199,0.5213,0.5331,0.5335,0.534,0.5425,0.5403,0.5505,0.5457,0.5413,0.5453,0.5452,0.5529,0.5539,0.5564,0.5658,0.5663,0.5608,0.5611,0.5614,0.5616,0,0,0,0,0,0,0,0.5192,0.5208,0.5355,0.5333,0.5338,0.5346,0.5359,0.5422,0.5477,0.5416,0.5419,0.5432,0.5531,0.5558,0.5567,0.5665,0.5607,0.5613,0.5617,0.5619,0.5817,0.5818,0,0,0,0,0,0,0.518,0.5202,0.5351,0.5358,0.5265,0.535,0.5365,0.5399,0.5476,0.5486,0.5433,0.5433,0.5548,0.556,0.5572,0.5651,0.5614,0.562,0.5623,0.5815,0.5817,0.5818,0,0,0,0,0,0,0.5175,0.5193,0.5346,0.5281,0.5301,0.5355,0.5393,0.5402,0.5429,0.5489,0.5499,0.5451,0.5548,0.5563,0.5631,0.5656,0.5623,0.5628,0.5813,0.5816,0.5818,0.5811,0,0,0,0,0,0,0.5169,0.5191,0.5215,0.5281,0.5304,0.5403,0.5395,0.5405,0.5439,0.544,0.5508,0.5518,0.5548,0.5622,0.5638,0.5664,0.5633,0.5811,0.5814,0.5817,0.5809,0.5812,0.5815,0,0,0,0,0,0.5162,0.521,0.5217,0.5234,0.5335,0.5404,0.5417,0.545,0.5441,0.5466,0.5504,0.5516,0.5651,0.5629,0.5647,0.5675,0.581,0.5813,0.5817,0.5807,0.5812,0.5815,0,0,0,0,0,0,0.5147,0.5219,0.5227,0.5297,0.5344,0.5408,0.5441,0.5454,0.5505,0.5504,0.5543,0.5558,0.5624,0.5657,0.5631,0.5741,0.573,0.5737,0.5717,0.5721,0.5725,0.5715,0.5638,0,0,0,0,0,0.5152,0.5201,0.5261,0.5317,0.534,0.5386,0.5418,0.5438,0.5489,0.551,0.5553,0.5602,0.5656,0.5691,0.5743,0.5814,0.5829,0.5842,0.5845,0.5847,0.5853,0.5892,0.5899,0.583,0.583,0.583,0,0,0.5162,0.5207,0.5236,0.5315,0.5354,0.5404,0.5403,0.5457,0.5495,0.5518,0.5585,0.5618,0.5676,0.5745,0.5778,0.5775,0.5876,0.5852,0.5853,0.5858,0.5896,0.5903,0.5909,0.5832,0.5832,0.5831,0,0,0.5207,0.5246,0.5296,0.5335,0.5393,0.5424,0.5436,0.5498,0.552,0.5588,0.5606,0.5652,0.5744,0.5784,0.5817,0.5875,0.5887,0.5891,0.5908,0.5946,0.5951,0.5956,0.5977,0.5984,0.5897,0.5897,0.5897,0,0.5213,0.5288,0.5321,0.5373,0.5407,0.543,0.5481,0.5517,0.559,0.5614,0.5608,0.5723,0.5764,0.5842,0.5856,0.5882,0.5897,0.5884,0.5947,0.5953,0.5958,0.5978,0.5986,0.5897,0.5897,0.5897,0.5897,0,0.5293,0.5345,0.5379,0.5447,0.5485,0.5537,0.5577,0.5612,0.5629,0.566,0.5728,0.5778,0.584,0.5861,0.5879,0.5942,0.5938,0.5939,0.593,0.5964,0.5984,0.5992,0.5897,0.5897,0.5897,0.5897,0,0,0.5332,0.5416,0.5428,0.5459,0.5524,0.5566,0.5618,0.5678,0.5707,0.5757,0.5802,0.5878,0.588,0.5916,0.5939,0.5972,0.6015,0.597,0.5972,0.5976,0.6087,0.6085,0.6093,0.6023,0.6025,0.6026,0.6082,0,0.5384,0.5478,0.5508,0.5586,0.5635,0.5656,0.5702,0.5747,0.5777,0.5824,0.5858,0.5911,0.5909,0.5931,0.5965,0.6002,0.6037,0.5999,0.6066,0.6068,0.605,0.6103,0.6102,0.6152,0.609,0.6091,0.6092,0,0.5458,0.5507,0.5589,0.5647,0.5669,0.571,0.5766,0.581,0.5862,0.5882,0.5922,0.5942,0.5998,0.5985,0.6063,0.6036,0.6065,0.6088,0.609,0.6098,0.6082,0.6112,0.6169,0.6176,0.6104,0.6103,0.6102,0,0.5477,0.5564,0.5624,0.565,0.572,0.5748,0.5778,0.5829,0.5863,0.5913,0.5935,0.5991,0.6022,0.6066,0.61,0.6088,0.6175,0.6165,0.6194,0.6193,0.6211,0.621,0.6273,0.623,0.623,0.623,0.623,0,0.5532,0.5582,0.5634,0.5671,0.5727,0.5762,0.5817,0.5848,0.5893,0.5937,0.596,0.6001,0.6044,0.6091,0.6119,0.6179,0.6193,0.6211,0.6217,0.6209,0.6206,0.6228,0.6226,0.6232,0.6232,0.6231,0.6231,0,0.5564,0.5601,0.5668,0.5728,0.5744,0.5783,0.5834,0.5871,0.5902,0.5957,0.5972,0.6021,0.6077,0.6116,0.6189,0.6207,0.6272,0.6279,0.6254,0.6258,0.6284,0.6281,0.6364,0.6376,0.6325,0.6325,0.6326,0,0.5597,0.5635,0.5698,0.5729,0.5759,0.5808,0.5842,0.5878,0.5912,0.5974,0.6003,0.6061,0.6108,0.6197,0.624,0.6295,0.6303,0.6328,0.6312,0.6301,0.6303,0.63,0.6304,0.6331,0.6331,0.6332,0.6332,0,0.565,0.5666,0.5714,0.5768,0.5807,0.5852,0.5897,0.5921,0.5964,0.6002,0.6059,0.6096,0.6169,0.6226,0.6285,0.6317,0.6332,0.6337,0.6346,0.6337,0.6321,0.633,0.6261,0.6335,0.6334,0.6334,0.6334,0.6334,0.5684,0.5718,0.5768,0.582,0.5857,0.5898,0.5935,0.597,0.6018,0.6079,0.6097,0.6157,0.6207,0.6288,0.6321,0.6368,0.6366,0.638,0.6384,0.6387,0.6386,0.6314,0.6379,0.6379,0.6379,0.6379,0.6379,0,0.5738,0.5771,0.5818,0.5879,0.592,0.5929,0.5979,0.6013,0.6064,0.6109,0.6155,0.622,0.6275,0.6321,0.6378,0.6407,0.6415,0.6421,0.6419,0.6426,0.6385,0.6371,0.6413,0.6413,0.6413,0.6413,0.6413,0.6413,0.5771,0.583,0.5852,0.5929,0.5962,0.6019,0.6046,0.6084,0.612,0.6192,0.6237,0.6266,0.6312,0.6372,0.6423,0.6435,0.6455,0.6459,0.6472,0.6433,0.6429,0.6425,0.6412,0.6463,0.6463,0.651,0.651,0.651]},{"header":{"parameterUnit":"m.s-1","parameterCategory":1,"la1":30.2991,"la2":30.254,"lo1":-89.0895,"lo2":-89.0444,"dy":0.0017,"dx":0.0017,"nx":28,"ny":28,"refTime":"2025-04-27T03:00:00:Z","depth":0,"parameterNumber":3,"parameterNumberName":"V-component_of_WINDS"},"data":[0,0,0,0,0,0,0,0,0,0,0,0,0,0,0,0,0,0,0,0,0,0,0,0,0,0,0,0,0,0,0,0,0,0,0,0,0,0,0,0,0,0,0,0,0,0,0,0,0,0,0,0,0,0,0,0,0,0,2.8044,2.8044,0,2.803,2.8029,2.8029,2.7963,2.7961,2.796,2.7958,2.7945,2.7946,2.7947,0,0,0,0,0,0,0,0,0,0,0,0,0,2.8013,2.8014,2.8044,2.8044,2.8043,2.803,2.8029,2.8029,2.7963,2.7961,2.7959,2.7958,2.7944,2.7946,2.7947,0,0,0,0,0,0,0,0,0,0,0,0,0,2.8016,2.8015,2.8044,2.8009,2.8005,2.803,2.8029,2.8029,2.7964,2.7961,2.7959,2.7957,2.7944,2.7945,2.7947,2.8004,0,0,2.7952,2.7953,0,0,0,0,0,0,0,0,2.8016,2.8017,2.8014,2.8011,2.8008,2.7996,2.8014,2.8021,2.7964,2.798,2.7958,2.7956,2.7964,2.7963,2.7966,2.8004,2.8003,2.7952,2.7953,2.7954,2.7954,0,0,0,0,0,0,0,2.8016,2.8017,2.8038,2.8014,2.801,2.7994,2.7991,2.8015,2.7985,2.7978,2.7973,2.7972,2.7961,2.7965,2.7965,2.8003,2.7952,2.7954,2.7955,2.7955,2.8086,2.8089,0,0,0,0,0,0,2.802,2.8018,2.8039,2.8038,2.8006,2.7996,2.7994,2.8002,2.7984,2.798,2.7974,2.7969,2.7963,2.7963,2.7964,2.803,2.7954,2.7955,2.7956,2.8084,2.8087,2.8089,0,0,0,0,0,0,2.802,2.8023,2.8039,2.8026,2.8027,2.7999,2.8009,2.8003,2.8006,2.7982,2.7976,2.7983,2.7961,2.7962,2.7995,2.8029,2.7956,2.7958,2.8081,2.8085,2.8088,2.8162,0,0,0,0,0,0,2.8019,2.8023,2.8045,2.8027,2.8028,2.807,2.8011,2.8004,2.8009,2.8002,2.7988,2.7984,2.7959,2.7993,2.7996,2.803,2.7959,2.8078,2.8083,2.8087,2.8157,2.8168,2.8178,0,0,0,0,0,2.8019,2.8066,2.8046,2.8049,2.8054,2.8072,2.8072,2.8043,2.8012,2.8033,2.8017,2.7984,2.8024,2.7997,2.8,2.8035,2.8075,2.8081,2.8087,2.8152,2.8166,2.8178,0,0,0,0,0,0,2.8089,2.8063,2.8041,2.8084,2.8081,2.8061,2.8087,2.8059,2.8064,2.8058,2.8021,2.8018,2.8056,2.8048,2.8018,2.8089,2.8044,2.8051,2.8093,2.8106,2.8116,2.8117,2.796,0,0,0,0,0,2.8109,2.8126,2.8102,2.8143,2.8142,2.8115,2.8122,2.8099,2.8094,2.8092,2.8079,2.8076,2.8087,2.8096,2.8105,2.8155,2.8151,2.818,2.8191,2.82,2.8206,2.8232,2.8244,2.8108,2.8108,2.8108,0,0,2.8152,2.814,2.8153,2.8157,2.8152,2.8169,2.8114,2.8136,2.8148,2.8096,2.8126,2.8116,2.811,2.8151,2.8168,2.8146,2.8243,2.8207,2.8214,2.8216,2.8239,2.8252,2.8263,2.8112,2.8111,2.811,0,0,2.8239,2.8231,2.8264,2.826,2.8252,2.8234,2.8242,2.8226,2.8217,2.8246,2.8207,2.8222,2.8243,2.824,2.8241,2.8326,2.8296,2.8331,2.8386,2.8412,2.8422,2.8432,2.8462,2.8474,2.8337,2.8337,2.8337,0,2.8293,2.8318,2.8285,2.8309,2.8312,2.8264,2.8297,2.8294,2.8291,2.8294,2.8268,2.8293,2.8286,2.8326,2.8346,2.8349,2.8357,2.8332,2.8423,2.8432,2.8441,2.847,2.8481,2.8341,2.8341,2.834,2.834,0,2.8385,2.8403,2.843,2.8427,2.8433,2.8462,2.8433,2.8443,2.842,2.8404,2.8434,2.8424,2.843,2.8438,2.8415,2.8475,2.8461,2.843,2.8384,2.8458,2.8485,2.8496,2.8347,2.8346,2.8345,2.8343,0,0,2.8516,2.8494,2.8505,2.8503,2.849,2.8504,2.853,2.8536,2.8545,2.8544,2.8565,2.8584,2.8555,2.8556,2.8533,2.8556,2.8624,2.8522,2.8521,2.8541,2.8689,2.8713,2.8726,2.8604,2.8606,2.8607,2.8689,0,2.8599,2.8642,2.8613,2.8661,2.8677,2.8632,2.8655,2.865,2.8636,2.8648,2.8632,2.8646,2.8606,2.8607,2.8627,2.8612,2.8653,2.8605,2.8623,2.8624,2.8627,2.874,2.8765,2.8843,2.87,2.8701,2.8703,0,2.8702,2.8705,2.8755,2.8739,2.8745,2.8766,2.8768,2.878,2.8774,2.8762,2.8763,2.8734,2.8759,2.8714,2.8748,2.8716,2.8721,2.8715,2.8717,2.8718,2.8668,2.8744,2.8867,2.8879,2.8718,2.8717,2.8716,0,2.8793,2.881,2.8841,2.8841,2.8823,2.8839,2.8833,2.8824,2.8829,2.8831,2.8834,2.884,2.8843,2.8848,2.8822,2.8791,2.8859,2.8812,2.885,2.8851,2.8867,2.8866,2.8993,2.887,2.887,2.887,2.8869,0,2.889,2.8922,2.8882,2.8902,2.8936,2.8902,2.8938,2.8926,2.8919,2.8935,2.8897,2.8913,2.8877,2.889,2.8869,2.89,2.8902,2.8893,2.8887,2.8897,2.8898,2.8901,2.8895,2.8873,2.8872,2.8871,2.8871,0,2.8998,2.8972,2.9004,2.8984,2.898,2.9007,2.899,2.9007,2.899,2.9012,2.9015,2.8988,2.9002,2.8975,2.8985,2.8971,2.9015,2.9001,2.9018,2.9013,2.9053,2.905,2.9187,2.9203,2.9069,2.907,2.9071,0,2.9061,2.9085,2.9067,2.9076,2.9071,2.9085,2.909,2.9057,2.9064,2.9058,2.9076,2.9086,2.9092,2.9116,2.9097,2.9105,2.909,2.9138,2.9091,2.91,2.9092,2.9091,2.9093,2.9147,2.9149,2.915,2.9151,0,2.9176,2.9162,2.9171,2.9175,2.9182,2.9184,2.9183,2.9192,2.9157,2.9167,2.918,2.9184,2.9194,2.9205,2.9208,2.9201,2.9171,2.9166,2.9175,2.9186,2.9195,2.9191,2.9044,2.9163,2.9162,2.9161,2.9161,2.916,2.9264,2.9283,2.9273,2.9284,2.928,2.928,2.9295,2.928,2.929,2.9295,2.9275,2.9292,2.9285,2.9286,2.9282,2.9296,2.9274,2.9288,2.9291,2.9296,2.9302,2.9192,2.9296,2.9296,2.9295,2.9295,2.9295,0,2.9377,2.9369,2.9379,2.9379,2.9387,2.9357,2.9355,2.9364,2.938,2.9375,2.9382,2.9397,2.9407,2.9389,2.9396,2.941,2.9397,2.9413,2.9412,2.9411,2.932,2.9312,2.9424,2.9424,2.9424,2.9424,2.9424,2.9424,2.9437,2.9467,2.9452,2.948,2.9472,2.9488,2.9489,2.9489,2.9485,2.9503,2.9511,2.9499,2.949,2.9496,2.9504,2.9498,2.9503,2.9524,2.9514,2.943,2.9418,2.9406,2.9397,2.9526,2.9526,2.9604,2.9605,2.9605]}]]